カタログに戻る

STARLINK-3956

運用中通信VLEO
NORAD 52560·PAYLOAD·🇺🇸 United States

打ち上げ May 13, 2022 から Vandenberg Space Force Base

Loading…

次のパス (今後24時間)

TLE

最新Source: CelesTrak SupGP

元期: Sep 14, 2026, 20:51 UTC

1 52560C 22051AD  26257.86923611 -.00031176  00000+0 -89203-3 0  2577
2 52560  53.1621 344.4059 0001596  48.6962 126.1337 15.35411711    16

AllMySatでSTARLINK-3956をリアルタイム追跡

Download on the App Store